Location: Holbach
(51.5399°N, 10.6036°E)
Time: 01:39:20
(UTC+00:00)

Cosmos 1707 - Pass Details

Date: 18 September 2020
Orbit: 515 x 530 km, 82.5° (Epoch: 23 October)

Event Time Altitude Azimuth Distance (km) Brightness Sun altitude
Rises 19:14:49 0° 342° (NNW) 2,656 7.0 -17.4°
Reaches altitude 10° 19:17:05 10° 333° (NNW) 1,760 6.2 -17.7°
Maximum altitude 19:20:35 34° 268° (W) 872 4.4 -18.2°
Drops below altitude 10° 19:24:03 10° 203° (SSW) 1,742 5.3 -18.7°
Enters shadow 19:25:45 - 195° (SSW) 2,404 6.0 -18.9°
